Aberdeen, United Kingdom

8:14 AM BST on August 23, 2017 (GMT +0100)
Dyce

Weather History for EGPD - March, 2013

Change the Weather History Date:

Tuesday, March 26, 2013

  Actual Average Record
Temperature  
Mean Temperature 34 °F -  
Max Temperature 37 °F 50 °F 68 °F (2012)
Min Temperature 32 °F 36 °F 21 °F (2008)
Degree Days  
Heating Degree Days 30    
Moisture  
Dew Point 28 °F    
Average Humidity 74    
Maximum Humidity 93    
Minimum Humidity 51    
Precipitation  
Precipitation 0.02 in 0.07 in - ()
Sea Level Pressure  
Sea Level Pressure 30.27 in    
Wind  
Wind Speed 7 mph ()    
Max Wind Speed 14 mph    
Max Gust Speed -    
Visibility 7.2 miles    
Events Rain , Snow    
Averages and records for this station are not official NWS values.
T = Trace of Precipitation, MM = Missing Value Source: Averaged Metar Reports

Daily Weather History Graph

Daily Weather History Graph

Search for Another Location

Airport or City:

Trip Planner

Search our weather history database for the weather conditions in past years. The results will help you decide how hot, cold, wet, or windy it might be!

Date:

Astronomy

Mar. 26, 2013 Rise Set
Actual Time 5:54 AM GMT 6:36 PM GMT
Civil Twilight 5:15 AM GMT 7:14 PM GMT
Nautical Twilight 4:28 AM GMT 8:01 PM GMT
Astronomical Twilight 3:37 AM GMT 8:53 PM GMT
Moon 5:56 PM GMT (3/26) 5:09 AM GMT (3/26)
Length of Visible Light 13h 59m
Length of Day
12h 41m
Waxing Gibbous, 99% of the Moon is Illuminated
Mar 26
Waxing Gibbous
Mar 27
Full
Apr 3
Last Quarter
Apr 10
New
Apr 18
First Quarter

Hourly Weather History & Observations

Time (GMT) Temp. Windchill Dew Point Humidity Pressure Visibility Wind Dir Wind Speed Gust Speed Precip Events Conditions
12:20 AM 35.6 °F 29.2 °F 24.8 °F 65% 30.33 in 6.2 mi East 8.1 mph - N/A   Partly Cloudy
12:50 AM 35.6 °F 30.7 °F 23.0 °F 60% 30.30 in 6.2 mi East 5.8 mph - N/A   Mostly Cloudy
1:20 AM 33.8 °F 25.8 °F 30.2 °F 87% 30.30 in 2.5 mi ENE 10.4 mph - N/A Snow Light Snow Showers
1:50 AM 33.8 °F 29.6 °F 30.2 °F 87% 30.30 in 6.2 mi East 4.6 mph - N/A   Partly Cloudy
2:20 AM 33.8 °F - 30.2 °F 87% 30.30 in 6.2 mi Variable 2.3 mph - N/A   Scattered Clouds
2:50 AM 32 °F - 30 °F 88% 30.32 in 9 mi NE 4.6 mph - - Rain Light Rain Showers
2:50 AM 33.8 °F 28.6 °F 30.2 °F 87% 30.30 in 4.3 mi NNE 5.8 mph - N/A Snow Light Snow Showers
3:20 AM 33.8 °F 27.7 °F 30.2 °F 87% 30.30 in 6.2 mi SE 6.9 mph - N/A   Scattered Clouds
3:50 AM 33.8 °F - 30.2 °F 87% 30.30 in 6.2 mi Variable 2.3 mph - N/A   Scattered Clouds
4:20 AM 35.6 °F 27.5 °F 26.6 °F 70% 30.30 in 6.2 mi East 11.5 mph - N/A   Scattered Clouds
4:50 AM 35.6 °F 30.7 °F 26.6 °F 70% 30.27 in 6.2 mi East 5.8 mph - N/A   Light Drizzle
5:20 AM 35.6 °F 28.6 °F 24.8 °F 65% 30.27 in 6.2 mi ENE 9.2 mph - N/A   Partly Cloudy
5:50 AM 35 °F - 24 °F 53% 30.30 in 16 mi East 8.1 mph - - Snow Snow
5:50 AM 35.6 °F 28.6 °F 23.0 °F 60% 30.27 in 6.2 mi East 9.2 mph - N/A   Partly Cloudy
6:20 AM 35.6 °F 28.0 °F 24.8 °F 65% 30.27 in 6.2 mi East 10.4 mph - N/A Rain , Snow Light Rain Showers
6:50 AM 32.0 °F 24.2 °F 30.2 °F 93% 30.27 in 3.7 mi East 9.2 mph - N/A Snow Light Snow Showers
7:20 AM 33.8 °F 27.7 °F 30.2 °F 87% 30.27 in 6.2 mi ESE 6.9 mph - N/A Snow Light Snow Showers
7:50 AM 33.8 °F 24.8 °F 30.2 °F 87% 30.30 in 2.5 mi East 12.7 mph - N/A Snow Snow Showers
8:20 AM 33.8 °F 25.3 °F 26.6 °F 75% 30.30 in 6.2 mi East 11.5 mph - N/A   Scattered Clouds
8:50 AM 35 °F - 24 °F 51% 30.31 in 16 mi ESE 13.8 mph - - Snow Snow
8:50 AM 35.6 °F 26.6 °F 24.8 °F 65% 30.30 in 6.2 mi East 13.8 mph - N/A   Mostly Cloudy
9:20 AM 37.4 °F 29.3 °F 26.6 °F 65% 30.30 in 6.2 mi ESE 12.7 mph - N/A   Scattered Clouds
9:50 AM 37.4 °F 28.9 °F 23.0 °F 56% 30.30 in 6.2 mi ESE 13.8 mph - N/A   Partly Cloudy
10:20 AM 35.6 °F 26.6 °F 24.8 °F 65% 30.30 in 6.2 mi ESE 13.8 mph - N/A   Partly Cloudy
10:50 AM 35.6 °F 27.5 °F 26.6 °F 70% 30.30 in 6.2 mi ESE 11.5 mph - N/A   Partly Cloudy
11:20 AM 37.4 °F 29.8 °F 26.6 °F 65% 30.27 in 6.2 mi ESE 11.5 mph - N/A   Scattered Clouds
11:50 AM 35 °F - 27 °F 62% 30.30 in 17 mi East 12.7 mph - - Rain Light Rain Showers
11:50 AM 35.6 °F 27.1 °F 28.4 °F 75% 30.27 in 6.2 mi East 12.7 mph - N/A   Scattered Clouds
12:20 PM 37.4 °F 29.8 °F 26.6 °F 65% 30.27 in 6.2 mi East 11.5 mph - N/A   Scattered Clouds
12:50 PM 37.4 °F 29.3 °F 28.4 °F 70% 30.27 in 6.2 mi East 12.7 mph - N/A   Scattered Clouds
1:20 PM 37.4 °F 29.8 °F 26.6 °F 65% 30.27 in 6.2 mi East 11.5 mph - N/A   Partly Cloudy
1:50 PM 37.4 °F 29.8 °F 26.6 °F 65% 30.27 in 6.2 mi East 11.5 mph - N/A   Scattered Clouds
2:20 PM 37.4 °F 28.9 °F 26.6 °F 65% 30.24 in 6.2 mi East 13.8 mph - N/A   Scattered Clouds
2:50 PM 36 °F - 27 °F 61% 30.27 in 19 mi East 12.7 mph - - Snow Snow
2:50 PM 37.4 °F 29.8 °F 28.4 °F 70% 30.24 in 6.2 mi East 11.5 mph - N/A   Partly Cloudy
3:20 PM 37.4 °F 30.3 °F 26.6 °F 65% 30.24 in 6.2 mi East 10.4 mph - N/A   Scattered Clouds
3:50 PM 37.4 °F 30.8 °F 26.6 °F 65% 30.24 in 6.2 mi East 9.2 mph - N/A   Scattered Clouds
4:20 PM 33.8 °F 27.0 °F 32.0 °F 93% 30.24 in 2.8 mi ESE 8.1 mph - N/A Snow Light Snow Showers
4:50 PM 33.8 °F 27.7 °F 30.2 °F 87% 30.24 in 6.2 mi ENE 6.9 mph - N/A   Scattered Clouds
5:20 PM 32.0 °F 27.5 °F 30.2 °F 93% 30.24 in 4.3 mi East 4.6 mph - N/A Snow Light Snow Showers
5:50 PM 34 °F - 30 °F 80% 30.25 in 14 mi ESE 2.3 mph - - Snow Snow
5:50 PM 33.8 °F - 32.0 °F 93% 30.24 in 6.2 mi Calm Calm - N/A   Scattered Clouds
6:20 PM 35.6 °F 29.9 °F 26.6 °F 70% 30.24 in 6.2 mi East 6.9 mph - N/A   Scattered Clouds
6:50 PM 33.8 °F 26.4 °F 30.2 °F 87% 30.24 in 6.2 mi ESE 9.2 mph - N/A   Partly Cloudy
7:20 PM 33.8 °F 28.6 °F 28.4 °F 81% 30.24 in 6.2 mi ESE 5.8 mph - N/A   Scattered Clouds
7:50 PM 33.8 °F 28.6 °F 28.4 °F 81% 30.24 in 6.2 mi East 5.8 mph - N/A   Scattered Clouds
8:20 PM 33.8 °F 28.6 °F 26.6 °F 75% 30.24 in 6.2 mi Variable 5.8 mph - N/A   Scattered Clouds
8:50 PM 34 °F - 30 °F 79% 30.25 in 14 mi East 5.8 mph - -   Unknown Precipitation
8:50 PM 33.8 °F 27.7 °F 30.2 °F 87% 30.24 in 6.2 mi East 6.9 mph - N/A   Scattered Clouds
9:20 PM 33.8 °F 29.6 °F 28.4 °F 81% 30.24 in 6.2 mi East 4.6 mph - N/A   Scattered Clouds
9:50 PM 33.8 °F 29.6 °F 28.4 °F 81% 30.24 in 6.2 mi East 4.6 mph - N/A   Scattered Clouds
10:20 PM 33.8 °F 30.8 °F 28.4 °F 81% 30.24 in 6.2 mi Variable 3.5 mph - N/A   Partly Cloudy
10:50 PM 33.8 °F 27.0 °F 28.4 °F 81% 30.21 in 6.2 mi East 8.1 mph - N/A   Partly Cloudy
11:20 PM 33.8 °F 30.8 °F 26.6 °F 75% 30.21 in 6.2 mi ENE 3.5 mph - N/A   Partly Cloudy
11:50 PM 33 °F - 26 °F 65% 30.24 in 19 mi ENE 1.2 mph - -   Unknown Precipitation
11:50 PM 33.8 °F - 26.6 °F 75% 30.21 in 6.2 mi Calm Calm - N/A   Unknown